When you browse on this site, cookies collect data to enhance your experience and personalize the content and advertising you see.
Visit our Privacy Policy to learn more. By continuing to use the site, you agree to this use of cookies and data.
  • Em Portugal
  • Lista de países
  • Para 7 dias
  • Temperatura da água
  • Mapas de satélite
  • Mapa do tempo
  • Widgets de tempo
  • user-avatar
    Iniciar Sessão

    Previsão horária em Rarwino

    Hoje, 25 Maio, Sábado

    Tempo Temperatura Precipitação Vento Pressão Humidade
    00:00 +11°C° 0 mm 3 m/s 757 mmHg 91%
    01:00 +10°C° 0 mm 3 m/s 757 mmHg 93%
    02:00 +9°C° 0 mm 3 m/s 757 mmHg 94%
    03:00 +9°C° 0 mm 3 m/s 757 mmHg 94%
    04:00 +8°C° 0 mm 4 m/s 757 mmHg 94%
    05:00 +8°C° 0 mm 4 m/s 757 mmHg 92%
    06:00 +10°C° 0 mm 4 m/s 758 mmHg 89%
    07:00 +10°C° 0 mm 5 m/s 758 mmHg 86%
    08:00 +10°C° 0 mm 5 m/s 758 mmHg 83%
    09:00 +12°C° 0 mm 5 m/s 758 mmHg 79%
    10:00 +12°C° 0 mm 5 m/s 759 mmHg 75%
    11:00 +12°C° 0 mm 5 m/s 759 mmHg 75%
    12:00 +12°C° 0 mm 5 m/s 759 mmHg 75%
    13:00 +12°C° 0 mm 5 m/s 759 mmHg 75%
    14:00 +12°C° 0 mm 5 m/s 759 mmHg 77%
    15:00 +12°C° 0 mm 5 m/s 758 mmHg 78%
    16:00 +12°C° 0 mm 5 m/s 758 mmHg 79%
    17:00 +12°C° 0 mm 5 m/s 758 mmHg 79%
    18:00 +12°C° 0 mm 5 m/s 758 mmHg 79%
    19:00 +12°C° 0 mm 4 m/s 758 mmHg 79%
    20:00 +11°C° 0 mm 4 m/s 758 mmHg 83%
    21:00 +11°C° 0 mm 4 m/s 758 mmHg 87%
    22:00 +10°C° 0 mm 4 m/s 758 mmHg 91%
    23:00 +10°C° 0 mm 4 m/s 758 mmHg 91%

    Amanhã, 26 Maio, Domingo

    Tempo Temperatura Precipitação Vento Pressão Humidade
    00:00 +10°C° 0 mm 4 m/s 758 mmHg 92%
    01:00 +10°C° 0 mm 4 m/s 758 mmHg 92%
    02:00 +8°C° 0 mm 4 m/s 758 mmHg 93%
    03:00 +8°C° 0 mm 4 m/s 758 mmHg 93%
    04:00 +7°C° 0 mm 4 m/s 757 mmHg 94%
    05:00 +8°C° 0 mm 5 m/s 757 mmHg 90%
    06:00 +9°C° 0 mm 5 m/s 757 mmHg 85%
    07:00 +9°C° 0 mm 5 m/s 757 mmHg 81%
    08:00 +10°C° 0 mm 5 m/s 757 mmHg 78%
    09:00 +11°C° 0 mm 6 m/s 757 mmHg 75%
    10:00 +13°C° 0 mm 6 m/s 756 mmHg 72%
    11:00 +13°C° 0.1 mm 6 m/s 756 mmHg 74%
    12:00 +14°C° 0.1 mm 6 m/s 756 mmHg 75%
    13:00 +14°C° 0.1 mm 6 m/s 755 mmHg 76%
    14:00 +14°C° 0.2 mm 6 m/s 755 mmHg 81%
    15:00 +13°C° 0.2 mm 5 m/s 755 mmHg 85%
    16:00 +12°C° 0.2 mm 5 m/s 755 mmHg 90%
    17:00 +13°C° 0.1 mm 5 m/s 754 mmHg 91%
    18:00 +13°C° 0.1 mm 5 m/s 754 mmHg 91%
    19:00 +13°C° 0.1 mm 5 m/s 754 mmHg 92%
    20:00 +13°C° 0.1 mm 5 m/s 754 mmHg 93%
    21:00 +13°C° 0.1 mm 4 m/s 754 mmHg 94%
    22:00 +13°C° 0.1 mm 4 m/s 754 mmHg 95%
    23:00 +13°C° 1 mm 4 m/s 754 mmHg 95%

    Depois de amanhã, 27 Maio, Segunda-feira

    Tempo Temperatura Precipitação Vento Pressão Humidade
    00:00 +13°C° 1 mm 5 m/s 753 mmHg 95%
    01:00 +13°C° 1 mm 5 m/s 753 mmHg 95%
    02:00 +14°C° 0.7 mm 6 m/s 752 mmHg 95%
    03:00 +14°C° 0.7 mm 6 m/s 752 mmHg 95%
    04:00 +14°C° 0.7 mm 7 m/s 751 mmHg 95%
    05:00 +14°C° 0.9 mm 6 m/s 752 mmHg 95%
    06:00 +14°C° 0.9 mm 6 m/s 752 mmHg 95%
    07:00 +14°C° 0.9 mm 5 m/s 752 mmHg 95%
    08:00 +15°C° 0.3 mm 5 m/s 752 mmHg 92%
    09:00 +15°C° 0.3 mm 5 m/s 752 mmHg 89%
    10:00 +16°C° 0.3 mm 5 m/s 753 mmHg 87%
    11:00 +16°C° 0.4 mm 5 m/s 753 mmHg 85%
    12:00 +16°C° 0.4 mm 5 m/s 753 mmHg 84%
    13:00 +15°C° 0.4 mm 4 m/s 753 mmHg 82%
    14:00 +16°C° 0.1 mm 5 m/s 753 mmHg 79%
    15:00 +16°C° 0.1 mm 5 m/s 753 mmHg 75%
    16:00 +16°C° 0.1 mm 5 m/s 753 mmHg 72%
    17:00 +15°C° 0 mm 4 m/s 754 mmHg 75%
    18:00 +14°C° 0 mm 4 m/s 754 mmHg 78%
    19:00 +13°C° 0 mm 3 m/s 754 mmHg 81%
    20:00 +13°C° 0 mm 2 m/s 754 mmHg 84%
    21:00 +12°C° 0 mm 2 m/s 755 mmHg 87%
    22:00 +11°C° 0 mm 1 m/s 755 mmHg 89%
    23:00 +11°C° 0 mm 1 m/s 755 mmHg 90%

    28 Maio, Terça-feira

    Tempo Temperatura Precipitação Vento Pressão Humidade
    00:00 +10°C° 0 mm 2 m/s 755 mmHg 91%
    01:00 +9°C° 0 mm 2 m/s 755 mmHg 92%
    02:00 +9°C° 0 mm 2 m/s 755 mmHg 93%
    03:00 +9°C° 0 mm 2 m/s 755 mmHg 93%
    04:00 +9°C° 0 mm 2 m/s 755 mmHg 94%
    05:00 +10°C° 0 mm 2 m/s 755 mmHg 88%
    06:00 +12°C° 0 mm 2 m/s 755 mmHg 83%
    07:00 +13°C° 0 mm 2 m/s 755 mmHg 78%
    08:00 +13°C° 0 mm 3 m/s 756 mmHg 73%
    09:00 +14°C° 0 mm 3 m/s 756 mmHg 68%
    10:00 +14°C° 0 mm 3 m/s 756 mmHg 64%
    11:00 +14°C° 0 mm 3 m/s 756 mmHg 65%
    12:00 +14°C° 0 mm 4 m/s 756 mmHg 67%
    13:00 +15°C° 0 mm 5 m/s 756 mmHg 69%
    14:00 +14°C° 0 mm 5 m/s 757 mmHg 70%
    15:00 +13°C° 0 mm 5 m/s 757 mmHg 70%
    16:00 +12°C° 0 mm 5 m/s 757 mmHg 71%
    17:00 +10°C° 0 mm 5 m/s 757 mmHg 72%
    18:00 +11°C° 0 mm 4 m/s 758 mmHg 72%
    19:00 +10°C° 0 mm 4 m/s 758 mmHg 73%
    20:00 +10°C° 0 mm 4 m/s 758 mmHg 74%
    21:00 +8°C° 0 mm 4 m/s 759 mmHg 76%
    22:00 +8°C° 0 mm 4 m/s 759 mmHg 78%
    23:00 +8°C° 0 mm 4 m/s 759 mmHg 79%

    29 Maio, Quarta-feira

    Tempo Temperatura Precipitação Vento Pressão Humidade
    00:00 +7°C° 0 mm 4 m/s 760 mmHg 80%
    01:00 +7°C° 0 mm 4 m/s 760 mmHg 80%
    02:00 +7°C° 0 mm 5 m/s 760 mmHg 79%
    03:00 +7°C° 0 mm 5 m/s 760 mmHg 77%
    04:00 +7°C° 0 mm 6 m/s 761 mmHg 75%
    05:00 +8°C° 0 mm 6 m/s 761 mmHg 72%
    06:00 +8°C° 0 mm 6 m/s 762 mmHg 70%
    07:00 +8°C° 0 mm 7 m/s 762 mmHg 67%
    08:00 +9°C° 0 mm 7 m/s 762 mmHg 66%
    09:00 +9°C° 0 mm 7 m/s 763 mmHg 64%
    10:00 +10°C° 0 mm 7 m/s 763 mmHg 63%
    11:00 +10°C° 0 mm 7 m/s 764 mmHg 62%
    12:00 +11°C° 0 mm 6 m/s 764 mmHg 60%
    13:00 +11°C° 0 mm 6 m/s 765 mmHg 59%
    14:00 +11°C° 0 mm 6 m/s 765 mmHg 60%
    15:00 +12°C° 0 mm 5 m/s 765 mmHg 60%
    16:00 +12°C° 0 mm 5 m/s 765 mmHg 61%
    17:00 +12°C° 0 mm 4 m/s 766 mmHg 65%
    18:00 +11°C° 0 mm 3 m/s 766 mmHg 69%
    19:00 +12°C° 0 mm 2 m/s 766 mmHg 74%
    20:00 +10°C° 0 mm 2 m/s 766 mmHg 76%
    21:00 +9°C° 0 mm 2 m/s 767 mmHg 79%
    22:00 +8°C° 0 mm 2 m/s 767 mmHg 81%
    23:00 +8°C° 0 mm 2 m/s 767 mmHg 82%

    30 Maio, Quinta-feira

    Tempo Temperatura Precipitação Vento Pressão Humidade
    00:00 +7°C° 0 mm 3 m/s 767 mmHg 84%
    01:00 +7°C° 0 mm 3 m/s 767 mmHg 85%
    02:00 +7°C° 0 mm 3 m/s 767 mmHg 85%
    03:00 +6°C° 0 mm 4 m/s 767 mmHg 86%
    04:00 +6°C° 0 mm 5 m/s 767 mmHg 86%
    05:00 +7°C° 0 mm 5 m/s 767 mmHg 81%
    06:00 +9°C° 0 mm 6 m/s 766 mmHg 76%
    07:00 +10°C° 0 mm 6 m/s 766 mmHg 71%
    08:00 +11°C° 0 mm 6 m/s 766 mmHg 67%
    09:00 +13°C° 0 mm 6 m/s 766 mmHg 63%
    10:00 +15°C° 0 mm 7 m/s 765 mmHg 58%
    11:00 +15°C° 0 mm 7 m/s 765 mmHg 57%
    12:00 +16°C° 0 mm 7 m/s 764 mmHg 55%
    13:00 +17°C° 0 mm 7 m/s 764 mmHg 54%
    14:00 +17°C° 0 mm 7 m/s 763 mmHg 55%
    15:00 +17°C° 0 mm 6 m/s 763 mmHg 57%
    16:00 +17°C° 0 mm 6 m/s 762 mmHg 59%
    17:00 +16°C° 0.2 mm 6 m/s 762 mmHg 66%
    18:00 +15°C° 0.2 mm 5 m/s 761 mmHg 73%
    19:00 +14°C° 0.2 mm 4 m/s 761 mmHg 80%
    20:00 +13°C° 0.2 mm 5 m/s 761 mmHg 84%
    21:00 +13°C° 0.2 mm 5 m/s 761 mmHg 88%
    22:00 +13°C° 0.2 mm 5 m/s 761 mmHg 92%
    23:00 +13°C° 0 mm 5 m/s 760 mmHg 93%
    Mostrar mais